METAR Formatted Surface Weather Observation
Issued by NWS Charleston, SC

Home | Current Version | Previous Version | Text Only | Print | Product List | Glossary On
Versions: 1 2 3 4 5 6 7 8 9 10 11 12 13 14 15 16 17 18 19 20 21 22 23 24 25 26 27 28 29 30 31 32 33 34 35 36 37
000
SAUS42 KCHS 200854
MTRSAV
METAR KSAV 200853Z AUTO 23005KT 10SM BKN060 BKN080 24/22 A2999 RMK
AO2 SLP155 T02390222 53001



USA.gov is the U.S. government's official web portal to all federal, state and local government web resources and services.